Regional Weather Roundup
Issued by NWS

Home | Current Version | Previous Version | Text Only | Print | Product List | Glossary On
Versions: 1 2 3 4 5 6 7 8 9 10 11 12 13 14 15 16 17 18 19 20 21 22 23 24 25 26 27 28 29 30 31 32 33 34 35 36 37 38 39 40 41 42 43 44 45 46 47 48 49 50
000
ASUS43 KDMX 231907
RWRIA

WEATHER ROUNDUP FOR IOWA
NATIONAL WEATHER SERVICE DES MOINES IA
200 PM CDT WED JUL 23 2014

NOTE: "FAIR" INDICATES FEW OR NO CLOUDS BELOW 12,000 FEET WITH NO
SIGNIFICANT WEATHER AND/OR OBSTRUCTIONS TO VISIBILITY.

* - THESE STATIONS ARE NOT NWS STATIONS...THUS NOT UNDER NWS
QUALITY CONTROL.  THEY ALSO DO NOT REPORT WEATHER SUCH
AS PRECIPITATION OR FOG.

IAZ001>003-012>014-020>022-031>034-043>046-232000-
   NORTHWEST IOWA

CITY           SKY/WX    TMP DP  RH WIND       PRES   REMARKS
CARROLL *      MOSUNNY   79  63  57 E5        30.23S HX  80
CHEROKEE *     SUNNY     79  57  47 NE6       30.24F HX  80
DENISON *      SUNNY     79  61  53 NE10      30.22S HX  80
LE MARS *      SUNNY     79  57  47 NE9       30.25F HX  80
ORANGE CITY *  SUNNY     81  52  36 E6        30.26F HX  80
SHELDON *      PTSUNNY   77  57  50 VRB7      30.25S
SIOUX CITY     SUNNY     81  57  43 VRB3      30.23F HX  81
SPENCER        MOSUNNY   80  55  42 CALM      30.25F HX  80
STORM LAKE *   MOSUNNY   77  59  53 VRB5      30.26F
$$

IAZ055>058-069>071-079>083-090>094-232000-
   SOUTHWEST IOWA

CITY           SKY/WX    TMP DP  RH WIND       PRES   REMARKS
ATLANTIC *     SUNNY     81  63  54 N9        30.20S HX  82
AUDUBON *      SUNNY     82  66  57 NE5       30.24S HX  85
CLARINDA *     SUNNY     82  66  57 NE8       30.20S HX  85
COUNCIL BLFS * SUNNY     81  63  54 VRB7G14   30.21F HX  82
CRESTON *      SUNNY     81  64  57 NE8       30.20F HX  82
HARLAN  *      SUNNY     79  61  53 NE5G13    30.25F HX  80
LAMONI         MOSUNNY   82  62  50 NE10      30.18F HX  83
RED OAK *      SUNNY     81  63  54 NE7G13    30.20S HX  82
SHENANDOAH *   SUNNY     82  64  54 N10       30.20S HX  84
$$

IAZ047>049-059>061-072>074-084-232000-
   CENTRAL IOWA

CITY           SKY/WX    TMP DP  RH WIND       PRES   REMARKS
AMES           PTSUNNY   79  59  50 MISG      30.22R HX  80
ANKENY *       SUNNY     81  59  47 MISG      30.21S HX  81
CHARITON *     MOSUNNY   79  63  57 N8G15     30.20F HX  80
DES MOINES     PTSUNNY   82  60  47 NE6       30.20F HX  82
GRINNELL*      MOSUNNY   79  57  47 N8        30.22S HX  80
KNOXVILLE *    SUNNY     79  57  47 NE8       30.19F HX  80
MARSHALLTOWN   MOSUNNY   81  56  42 NE8       30.21F HX  81
PELLA *        SUNNY     82  57  42 N5        30.21S HX  82
PERRY *        PTSUNNY   79  61  53 E7        30.21F HX  80
$$

IAZ004>006-015-016-023>025-035-036-232000-
   NORTH CENTRAL IOWA

CITY           SKY/WX    TMP DP  RH WIND       PRES   REMARKS
ALGONA *       PTSUNNY   79  55  44 CALM      30.24F
CLARION *      MOSUNNY   77  55  47 VRB6      30.24S
ESTHERVILLE    PTSUNNY   77  57  50 SE3       30.25F
FORT DODGE *   MOSUNNY   79  59  50 E7        30.24F HX  80
MASON CITY     MOSUNNY   79  56  45 VRB3      30.25F HX  80
FOREST CITY *  MOSUNNY   77  55  47 NE6       30.24F
IOWA FALLS *   PTSUNNY   79  54  41 NE7       30.24S
$$

IAZ007>011-017>019-026>030-037>042-050>054-066-232000-
   NORTHEAST IOWA

CITY           SKY/WX    TMP DP  RH WIND       PRES   REMARKS
CEDAR RAPIDS   SUNNY     79  54  41 NE14      30.19F
CHARLES CITY * PTSUNNY   77  55  47 VRB7G13   30.24S
CLINTON *      MOSUNNY   77  57  50 NE8G16    30.21S
DECORAH *      MOSUNNY   75  55  50 VRB5      30.22F
DUBUQUE        MOSUNNY   77  58  51 NE10      30.21R
MONTICELLO *   MOSUNNY   77  57  50 VRB7      30.20F
OELWEIN *      MOSUNNY   77  55  47 N7G13     30.23F
WATERLOO       MOSUNNY   80  54  40 N10       30.21F HX  80
$$

IAZ064-065-067-068-078-232000-
   EAST CENTRAL IOWA

CITY           SKY/WX    TMP DP  RH WIND       PRES   REMARKS
DAVENPORT      SUNNY     78  56  46 NE9G20    30.19R
IOWA CITY      MOSUNNY   79  57  46 NE13G18   30.20S HX  80
MT. PLEASANT * MOSUNNY   79  61  53 NE9       30.18S HX  80
MUSCATINE *    SUNNY     81  54  39 NE12G17   30.18S HX  80
QUAD CITIES    SUNNY     80  56  43 N8G18     30.17S HX  80
$$

IAZ062-063-075>077-085>089-095>099-232000-
   SOUTHEAST IOWA

CITY           SKY/WX    TMP DP  RH WIND       PRES   REMARKS
BURLINGTON     SUNNY     79  61  53 N13       30.16S HX  80
FAIRFIELD *    MOSUNNY   77  61  57 N12       30.19S
FORT MADISON * MOSUNNY   81  66  61 NE9G17    30.17S HX  83
KEOKUK *       PTSUNNY   79  64  61 NE10      30.15S HX  81
OSKALOOSA *      N/A     79  59  50 NE7       30.20S HX  80
CENTERVILLE *  SUNNY     81  63  54 N8        30.20F HX  82
OTTUMWA        MOSUNNY   81  59  47 N9        30.19R HX  81
WASHINGTON *   SUNNY     79  59  50 N9        30.18F HX  80
$$

ABBREVIATIONS USED IN REMARKS
   TC - TEMPERATURES IN CELSIUS
  WCI - WIND CHILL INDEX
   HX - HEAT INDEX
  VSB - VISIBILITY
$$




USA.gov is the U.S. government's official web portal to all federal, state and local government web resources and services.